Weather in Trestna

Russia / Tver Oblast     57°31′46″N   35°58′00″E
temp.,
°C
wind,
m/s
gust,
m/s
humid.,
%
clouds,
%
prec.,
mm/h
press.,
hPa
HPBL,
m
10 april, sat
sat1000:00+1s4157921 0.0 1021456
03:00+1s5167963 0.0 1021485
06:000s5158355 0.0 1021440
09:00+4s6147669 0.0 1021807
12:00+8ssw6136333 0.0 10211716
15:00+10ssw6125576 0.0 10201978
18:00+8ssw612575 0.0 10191089
21:00+6ssw5146699 0.0 1020577
11 april, sun
sun1100:00+5ssw5157385 0.0 1021555
03:00+4wsw2684100 0.0 1023186
06:00+3wnw019697 0.0 102514
09:00+3n1297100 0.6 102779
12:00+4ene1291100 0.3 1028205
15:00+5nne1190100 0.3 102995
18:00+5ne2390100 0.0 102994
21:00+5e249199 0.0 103190
12 april, mon
mon1200:00+5ese2391100 0.0 103165
03:00+6s2390100 0.0 103161
06:00+5s249073 0.0 103256
09:00+9sse35725 0.0 1032229
12:00+13sse35540 0.0 1031805
15:00+15se454998 0.0 10291090
18:00+12ese3762100 0.0 1028254
21:00+9se41167100 0.0 1028467
13 april, tue
tue1300:00+7se3988100 0.1 1027313
03:00+7se2793100 0.2 1026202
06:00+7se2598100 0.0 1024117
09:00+10sse2486100 0.0 1023244
12:00+14s2472100 0.0 1023506
15:00+14sse2475100 0.0 1022139
18:00+14se1277100 0.0 102250
21:00+11sse2487100 0.0 102267
14 april, wed
wed1400:00+9sse2392100 0.0 102248
03:00+9sse1192100 0.0 102114
06:00+9sse2792100 0.1 1021145
09:00+13se377463 0.1 1020295
12:00+17s595253 0.0 10191091
15:00+16sse3857100 0.0 1017327
18:00+16sse41154100 0.0 1016597
21:00+13sse41361100 0.0 1016389